• In Slovakia
  • List of Countries
  • For 7 days
  • Water Temperature
  • Satellite Maps
  • Weather Map
  • Weather Widgets
  • user-avatar
    Login

    Hourly Weather Malanje

    Today, 19 January, Friday

    Time Temperature Precipitation Wind Pressure Humidity
    00:00 +18°C° 0.1 mm 2 mps 664 mmHg 98%
    01:00 +18°C° 0.1 mm 2 mps 664 mmHg 99%
    02:00 +18°C° 0 mm 2 mps 664 mmHg 98%
    03:00 +18°C° 0 mm 2 mps 664 mmHg 98%
    04:00 +19°C° 0 mm 3 mps 664 mmHg 97%
    05:00 +19°C° 0 mm 3 mps 664 mmHg 97%
    06:00 +19°C° 0 mm 3 mps 664 mmHg 97%
    07:00 +19°C° 0 mm 3 mps 664 mmHg 96%
    08:00 +20°C° 0 mm 3 mps 665 mmHg 90%
    09:00 +21°C° 0 mm 3 mps 665 mmHg 85%
    10:00 +22°C° 0 mm 3 mps 665 mmHg 79%
    11:00 +24°C° 0.1 mm 3 mps 665 mmHg 75%
    12:00 +25°C° 0.1 mm 3 mps 665 mmHg 72%
    13:00 +26°C° 0.1 mm 3 mps 664 mmHg 68%
    14:00 +26°C° 0.8 mm 3 mps 664 mmHg 75%
    15:00 +25°C° 0.8 mm 3 mps 663 mmHg 81%
    16:00 +24°C° 0.8 mm 3 mps 662 mmHg 88%
    17:00 +23°C° 0.6 mm 2 mps 663 mmHg 90%
    18:00 +21°C° 0.6 mm 2 mps 663 mmHg 93%
    19:00 +20°C° 0.6 mm 2 mps 663 mmHg 96%
    20:00 +19°C° 0 mm 2 mps 663 mmHg 96%
    21:00 +19°C° 0 mm 2 mps 664 mmHg 97%
    22:00 +19°C° 0 mm 2 mps 664 mmHg 97%
    23:00 +18°C° 0.1 mm 2 mps 664 mmHg 98%

    Tomorrow, 20 January, Saturday

    Time Temperature Precipitation Wind Pressure Humidity
    00:00 +18°C° 0.1 mm 2 mps 664 mmHg 98%
    01:00 +18°C° 0.1 mm 2 mps 664 mmHg 98%
    02:00 +18°C° 0.1 mm 2 mps 664 mmHg 98%
    03:00 +18°C° 0.1 mm 2 mps 663 mmHg 98%
    04:00 +18°C° 0.1 mm 2 mps 663 mmHg 98%
    05:00 +18°C° 0.2 mm 2 mps 664 mmHg 98%
    06:00 +18°C° 0.2 mm 2 mps 664 mmHg 98%
    07:00 +18°C° 0.2 mm 2 mps 664 mmHg 97%
    08:00 +19°C° 0.1 mm 2 mps 665 mmHg 93%
    09:00 +20°C° 0.1 mm 2 mps 665 mmHg 89%
    10:00 +20°C° 0.1 mm 3 mps 666 mmHg 85%
    11:00 +22°C° 0.1 mm 3 mps 665 mmHg 79%
    12:00 +24°C° 0.1 mm 3 mps 665 mmHg 73%
    13:00 +25°C° 0.1 mm 3 mps 665 mmHg 66%
    14:00 +25°C° 0.1 mm 3 mps 664 mmHg 68%
    15:00 +25°C° 0.1 mm 3 mps 664 mmHg 69%
    16:00 +24°C° 0.1 mm 3 mps 663 mmHg 71%
    17:00 +23°C° 0 mm 2 mps 663 mmHg 76%
    18:00 +21°C° 0 mm 2 mps 664 mmHg 81%
    19:00 +20°C° 0 mm 1 mps 664 mmHg 86%
    20:00 +20°C° 0 mm 1 mps 664 mmHg 87%
    21:00 +19°C° 0 mm 1 mps 665 mmHg 88%
    22:00 +19°C° 0 mm 1 mps 665 mmHg 89%
    23:00 +18°C° 0 mm 1 mps 665 mmHg 91%

    Day after tomorrow, 21 January, Sunday

    Time Temperature Precipitation Wind Pressure Humidity
    00:00 +18°C° 0 mm 1 mps 665 mmHg 93%
    01:00 +18°C° 0 mm 1 mps 664 mmHg 94%
    02:00 +18°C° 0 mm 1 mps 664 mmHg 95%
    03:00 +18°C° 0 mm 1 mps 664 mmHg 96%
    04:00 +16°C° 0 mm 1 mps 664 mmHg 98%
    05:00 +18°C° 0 mm 1 mps 664 mmHg 96%
    06:00 +18°C° 0 mm 1 mps 665 mmHg 95%
    07:00 +19°C° 0 mm 1 mps 665 mmHg 93%
    08:00 +21°C° 0 mm 1 mps 666 mmHg 85%
    09:00 +23°C° 0 mm 2 mps 666 mmHg 76%
    10:00 +25°C° 0 mm 2 mps 667 mmHg 67%
    11:00 +26°C° 0 mm 2 mps 666 mmHg 63%
    12:00 +27°C° 0 mm 3 mps 666 mmHg 60%
    13:00 +28°C° 0 mm 3 mps 665 mmHg 56%
    14:00 +27°C° 0.3 mm 3 mps 664 mmHg 60%
    15:00 +27°C° 0.3 mm 3 mps 664 mmHg 65%
    16:00 +27°C° 0.3 mm 3 mps 663 mmHg 69%
    17:00 +25°C° 0.3 mm 3 mps 663 mmHg 76%
    18:00 +23°C° 0.3 mm 2 mps 663 mmHg 84%
    19:00 +20°C° 0.3 mm 2 mps 663 mmHg 92%
    20:00 +19°C° 0 mm 2 mps 664 mmHg 93%
    21:00 +19°C° 0 mm 2 mps 665 mmHg 95%
    22:00 +18°C° 0 mm 2 mps 665 mmHg 96%
    23:00 +18°C° 0.1 mm 2 mps 665 mmHg 97%

    22 January, Monday

    Time Temperature Precipitation Wind Pressure Humidity
    00:00 +18°C° 0.1 mm 2 mps 665 mmHg 98%
    01:00 +18°C° 0.1 mm 2 mps 664 mmHg 98%
    02:00 +18°C° 0 mm 2 mps 664 mmHg 98%
    03:00 +18°C° 0 mm 2 mps 664 mmHg 98%
    04:00 +18°C° 0 mm 2 mps 664 mmHg 98%
    05:00 +18°C° 0 mm 2 mps 665 mmHg 97%
    06:00 +18°C° 0 mm 2 mps 665 mmHg 96%
    07:00 +18°C° 0 mm 2 mps 666 mmHg 95%
    08:00 +20°C° 0 mm 2 mps 666 mmHg 87%
    09:00 +23°C° 0 mm 2 mps 666 mmHg 78%
    10:00 +25°C° 0 mm 2 mps 667 mmHg 69%
    11:00 +26°C° 0.2 mm 2 mps 666 mmHg 66%
    12:00 +27°C° 0.2 mm 2 mps 666 mmHg 63%
    13:00 +28°C° 0.2 mm 3 mps 665 mmHg 59%
    14:00 +27°C° 0.6 mm 3 mps 664 mmHg 64%
    15:00 +27°C° 0.6 mm 3 mps 664 mmHg 69%
    16:00 +26°C° 0.6 mm 3 mps 663 mmHg 74%
    17:00 +24°C° 0.4 mm 2 mps 663 mmHg 79%
    18:00 +23°C° 0.4 mm 2 mps 663 mmHg 85%
    19:00 +21°C° 0.4 mm 1 mps 663 mmHg 91%
    20:00 +21°C° 0 mm 1 mps 664 mmHg 92%
    21:00 +20°C° 0 mm 1 mps 664 mmHg 93%
    22:00 +19°C° 0 mm 1 mps 665 mmHg 94%
    23:00 +19°C° 0 mm 1 mps 664 mmHg 95%

    23 January, Tuesday

    Time Temperature Precipitation Wind Pressure Humidity
    00:00 +19°C° 0 mm 1 mps 664 mmHg 95%
    01:00 +18°C° 0 mm 1 mps 664 mmHg 96%
    02:00 +18°C° 0 mm 1 mps 663 mmHg 96%
    03:00 +18°C° 0 mm 1 mps 663 mmHg 96%
    04:00 +18°C° 0 mm 1 mps 663 mmHg 96%
    05:00 +18°C° 0 mm 1 mps 664 mmHg 96%
    06:00 +18°C° 0 mm 1 mps 664 mmHg 95%
    07:00 +19°C° 0 mm 1 mps 665 mmHg 94%
    08:00 +21°C° 0 mm 1 mps 665 mmHg 86%
    09:00 +23°C° 0 mm 2 mps 665 mmHg 77%
    10:00 +25°C° 0 mm 2 mps 666 mmHg 68%
    11:00 +26°C° 0 mm 2 mps 665 mmHg 63%
    12:00 +27°C° 0 mm 2 mps 665 mmHg 58%
    13:00 +28°C° 0 mm 3 mps 664 mmHg 53%
    14:00 +28°C° 0.1 mm 3 mps 664 mmHg 56%
    15:00 +27°C° 0.1 mm 3 mps 663 mmHg 59%
    16:00 +27°C° 0.1 mm 3 mps 663 mmHg 61%
    17:00 +25°C° 0.1 mm 2 mps 663 mmHg 69%
    18:00 +23°C° 0.1 mm 2 mps 663 mmHg 77%
    19:00 +21°C° 0.1 mm 1 mps 663 mmHg 85%
    20:00 +20°C° 0 mm 1 mps 663 mmHg 87%
    21:00 +20°C° 0 mm 1 mps 664 mmHg 89%
    22:00 +19°C° 0 mm 1 mps 664 mmHg 91%
    23:00 +19°C° 0 mm 1 mps 664 mmHg 93%

    24 January, Wednesday

    Time Temperature Precipitation Wind Pressure Humidity
    00:00 +18°C° 0 mm 1 mps 663 mmHg 94%
    01:00 +17°C° 0 mm 2 mps 663 mmHg 95%
    02:00 +17°C° 0 mm 2 mps 663 mmHg 96%
    03:00 +17°C° 0 mm 2 mps 663 mmHg 97%
    04:00 +17°C° 0 mm 2 mps 663 mmHg 97%
    05:00 +18°C° 0 mm 2 mps 664 mmHg 96%
    06:00 +18°C° 0 mm 2 mps 664 mmHg 95%
    07:00 +18°C° 0 mm 2 mps 665 mmHg 94%
    08:00 +19°C° 0 mm 2 mps 665 mmHg 89%
    09:00 +20°C° 0 mm 2 mps 665 mmHg 85%
    10:00 +21°C° 0 mm 2 mps 665 mmHg 80%
    11:00 +24°C° 0.1 mm 2 mps 665 mmHg 74%
    12:00 +25°C° 0.1 mm 2 mps 665 mmHg 68%
    13:00 +26°C° 0.1 mm 2 mps 664 mmHg 63%
    14:00 +26°C° 0 mm 2 mps 664 mmHg 65%
    15:00 +25°C° 0 mm 2 mps 663 mmHg 68%
    16:00 +25°C° 0 mm 2 mps 663 mmHg 70%
    17:00 +24°C° 0 mm 2 mps 663 mmHg 76%
    18:00 +21°C° 0 mm 2 mps 663 mmHg 81%
    19:00 +21°C° 0 mm 1 mps 663 mmHg 86%
    20:00 +20°C° 0 mm 1 mps 663 mmHg 89%
    21:00 +19°C° 0 mm 1 mps 664 mmHg 91%
    22:00 +19°C° 0 mm 1 mps 664 mmHg 94%
    23:00 +18°C° 0 mm 1 mps 664 mmHg 94%
    Show more